This is the latest recevied weather packets stored in our database for station/object WE1C. If no packets are shown the sender has not sent any weather packets the latest 10 day(s).
| Time | Temp. | Humidity | Pressure | Rain* | Wind** | Luminosity | Snow |
|---|---|---|---|---|---|---|---|
| 1787876091 | 19.44° C | 90% | 1044.8 hPa | 0 mm | - | 0 W/m² | - |
| 1787875787 | 20° C | 90% | 1044.8 hPa | 0 mm | - | 0 W/m² | - |
| 1787875485 | 20° C | 89% | 1044.9 hPa | 0 mm | - | 0 W/m² | - |
| 1787875184 | 20° C | 88% | 1044.7 hPa | 0 mm | - | 0 W/m² | - |
| 1787874883 | 20° C | 88% | 1044.9 hPa | 0 mm | - | 0 W/m² | - |
| 1787874578 | 20° C | 87% | 1044.8 hPa | 0 mm | - | 0 W/m² | - |
| 1787874273 | 20.56° C | 87% | 1044.9 hPa | 0 mm | - | 0 W/m² | - |
| 1787873973 | 20.56° C | 86% | 1044.9 hPa | 0 mm | - | 0 W/m² | - |
| 1787873672 | 20.56° C | 86% | 1045 hPa | 0 mm | - | 0 W/m² | - |
| 1787873367 | 20.56° C | 85% | 1044.6 hPa | 0 mm | - | 1 W/m² | - |
| 1787873066 | 20.56° C | 85% | 1044.4 hPa | 0 mm | - | 2 W/m² | - |
| 1787872761 | 21.11° C | 85% | 1044.4 hPa | 0 mm | - | 3 W/m² | - |
| 1787872458 | 21.11° C | 84% | 1044.7 hPa | 0 mm | - | 5 W/m² | - |
| 1787872152 | 21.67° C | 83% | 1044.7 hPa | 0 mm | - | 7 W/m² | - |
| 1787871852 | 21.67° C | 82% | 1044.8 hPa | 0 mm | - | 12 W/m² | - |
| 1787871546 | 21.67° C | 82% | 1044.5 hPa | 0 mm | - | 23 W/m² | - |
| 1787871242 | 21.67° C | 81% | 1044.7 hPa | 0 mm | - | 35 W/m² | - |
| 1787870937 | 21.67° C | 80% | 1044.7 hPa | 0 mm | - | 40 W/m² | - |
| 1787870637 | 21.67° C | 81% | 1044.7 hPa | 0 mm | - | 47 W/m² | - |
| 1787870332 | 21.67° C | 80% | 1044.6 hPa | 0 mm | - | 51 W/m² | - |
| 1787870028 | 21.67° C | 80% | 1044.5 hPa | 0 mm | - | 52 W/m² | - |
| 1787869726 | 22.22° C | 79% | 1044.8 hPa | 0 mm | - | 53 W/m² | - |
| 1787869426 | 22.22° C | 79% | 1044.6 hPa | 0 mm | - | 55 W/m² | - |
| 1787869121 | 22.22° C | 79% | 1044.5 hPa | 0 mm | - | 52 W/m² | - |
| 1787868820 | 22.22° C | 78% | 1044.9 hPa | 0 mm | - | 57 W/m² | - |
* Rain latest hour (hover to see other rain measurements)
** Current wind speed in m/s (hover to see current wind gust speed)